INMARSAT 5-F2

Last updated on Mon Oct 14 2024 00:02:39 GMT+0000 (Coordinated Universal Time)

1 40384U 15005A 24287.32402793 -.00000287 00000+0 00000+0 0 9999 2 40384 0.0157 189.7428 0000396 336.3155 277.9759 1.00268785 35547
UTC large
Height (km)
Speed (km/s)
/
Latitude / Longitude
Inclination (degrees)
Orbital Period (minutes)
Azimuth
Elevation
Range (km)
Doppler Factor

Next 0 passes for location: London (51.5072 / 0.1276)

Sorry there are no passes over London.